Tracking 23610 objects as of 20-Sep-2021
HD Live streaming from Space Station
objects crossing your sky now

STARLINK-2475

Track STARLINK-2475 now!
10-day predictions
STARLINK-2475 is classified as:


NORAD ID: 48133
Int'l Code: 2021-027AT
Perigee: 553.8 km
Apogee: 554.9 km
Inclination: 53.1 °
Period: 95.6 minutes
Semi major axis: 6925 km
RCS: Unknown
Launch date: April 7, 2021
Source: United States (US)
Launch site: AIR FORCE EASTERN TEST RANGE (AFETR)
aabbcc
Your satellite tracking list
Your tracking list is empty




NASA's NSSDC Master Catalog

Two Line Element Set (TLE):
1 48133U 21027AT  21262.51897381  .00001070  00000-0  90716-4 0  9991
2 48133  53.0559 298.7099 0000794  98.6824 261.4255 15.06397610 26415
Source of the keplerian elements: AFSPC